Regional Weather Roundup
Issued by NWS Cleveland, OH

Home | Current Version | Previous Version | Graphics & Text | Print | Product List | Glossary On
Versions: 1 2 3 4 5 6 7 8 9 10 11 12 13 14 15 16 17 18 19 20 21 22 23 24 25 26 27 28 29 30 31 32 33 34 35 36 37 38 39 40 41 42 43 44 45 46 47 48 49 50
000
ASUS41 KCLE 230102
RWRCLE
OHIO REGIONAL WEATHER ROUNDUP
NATIONAL WEATHER SERVICE CLEVELAND, OH
900 PM EDT TUE AUG 22 2017

NOTE: "FAIR" INDICATES FEW OR NO CLOUDS BELOW 12,000 FEET WITH NO
SIGNIFICANT WEATHER AND/OR OBSTRUCTIONS TO VISIBILITY.

OHZ001>008-015>018-024>027-034-035-043-044-230200-
   NORTHWEST OHIO

CITY           SKY/WX    TMP DP  RH WIND       PRES   REMARKS
DEFIANCE       CLEAR     68  57  68 NW9       29.91R
FINDLAY        CLEAR     69  62  78 W5        29.88R
TOLEDO EXPRESS CLEAR     70  59  68 NW9       29.88R
TOLEDO EXEC    PTCLDY    73  60  63 W13       29.88R
LIMA           PTCLDY    69  66  90 NW7       29.90R
$$

OHZ009>014-019>023-028>033-038-089-230200-
   NORTHEAST OHIO

CITY           SKY/WX    TMP DP  RH WIND       PRES   REMARKS
CLE-HOPKINS    PTCLDY    70  67  90 SW6       29.86R
CLE-LAKEFRONT  PTCLDY    73  67  81 W13       29.83R
CUY CO. ARPT   PTCLDY    70  68  94 W9        29.84S
LORAIN-ELYRIA  PTCLDY    68  62  81 W6        29.87R
ASHTABULA      PTCLDY    70  67  90 W12       29.83R
AKRON-CANTON   PTCLDY    74  64  71 SW5       29.86R
WOOSTER        MOCLDY    72  65  78 NW16G23   29.88R
MANSFIELD      LGT RAIN  68  67  96 W6        29.90R
YOUNGSTOWN     MOCLDY    73  65  75 W6        29.84R
$$

OHZ042-051>053-060>062-070>072-077>081-230200-
  SOUTHWEST OHIO

CITY           SKY/WX    TMP DP  RH WIND       PRES   REMARKS
CINC-COVINGTON MOCLDY    72  71  97 SW3       29.92S
CINC-LUNKEN    MOCLDY    73  71  93 S3        29.91S
HAMILTON       MOCLDY    74  69  85 NW3       29.92S
DAYTON         CLOUDY    73  64  73 W10       29.92S
WRIGHT-PAT AFB CLOUDY    76  67  75 W6        29.90S
DAYTON GENERAL MOCLDY    76  66  71 W6        29.91S
WILMINGTON     PTCLDY    73  69  87 W6        29.91S
$$

OHZ036-037-039>041-045>050-054>059-063>069-073>076-082>088-230200-
  CENTRAL AND SOUTHEAST OHIO

CITY           SKY/WX    TMP DP  RH WIND       PRES   REMARKS
COLUMBUS       MOCLDY    76  68  76 W6        29.89R
OSU AIRPORT    PTCLDY    74  69  85 SW7       29.89R
BOLTON FIELD   NOT AVBL
RICKENBACK AFB MOCLDY    73  69  88 SW3       29.88S
NEWARK         MOCLDY    72  67  84 SW3       29.88S
MARION         CLOUDY    69  65  86 NW8       29.90R
LANCASTER      PTCLDY    72  68  87 CALM      29.90S
ZANESVILLE     MOCLDY    75  67  76 W6        29.88S
NEW PHILLY     NOT AVBL
$$




USA.gov is the U.S. government's official web portal to all federal, state and local government web resources and services.